When you browse on this site, cookies collect data to enhance your experience and personalize the content and advertising you see.
Visit our Privacy Policy to learn more. By continuing to use the site, you agree to this use of cookies and data.
  • In Austria
  • List of Countries
  • For 7 days
  • Water Temperature
  • Weather Map
  • News
  • Weather Widgets
  • user-avatar
    Login

    Hourly Weather Santa Ana Hueytlalpan

    Today, 18 August, Sunday

    Time Temperature Precipitation Wind Pressure Humidity
    00:00 +14°C° 0 mm 1 mps 587 mmHg 91%
    01:00 +14°C° 0 mm 1 mps 587 mmHg 90%
    02:00 +14°C° 0 mm 1 mps 587 mmHg 88%
    03:00 +13°C° 0 mm 1 mps 587 mmHg 88%
    04:00 +13°C° 0 mm 1 mps 587 mmHg 87%
    05:00 +13°C° 0 mm 1 mps 587 mmHg 86%
    06:00 +15°C° 0 mm 1 mps 588 mmHg 79%
    07:00 +19°C° 0 mm 1 mps 590 mmHg 71%
    08:00 +21°C° 0 mm 1 mps 591 mmHg 63%
    09:00 +22°C° 0 mm 1 mps 591 mmHg 59%
    10:00 +23°C° 0 mm 2 mps 592 mmHg 55%
    11:00 +24°C° 0 mm 3 mps 592 mmHg 51%
    12:00 +24°C° 0 mm 3 mps 591 mmHg 54%
    13:00 +23°C° 0 mm 4 mps 591 mmHg 57%
    14:00 +23°C° 0 mm 4 mps 590 mmHg 60%
    15:00 +22°C° 0.1 mm 3 mps 589 mmHg 69%
    16:00 +20°C° 0.1 mm 3 mps 588 mmHg 79%
    17:00 +18°C° 0.1 mm 2 mps 588 mmHg 88%
    18:00 +17°C° 0.1 mm 2 mps 588 mmHg 92%
    19:00 +16°C° 0.1 mm 1 mps 588 mmHg 95%
    20:00 +15°C° 0.1 mm 1 mps 588 mmHg 98%
    21:00 +15°C° 0.1 mm 1 mps 588 mmHg 97%
    22:00 +15°C° 0.1 mm 1 mps 588 mmHg 97%
    23:00 +15°C° 0.1 mm 1 mps 588 mmHg 96%

    Tomorrow, 19 August, Monday

    Time Temperature Precipitation Wind Pressure Humidity
    00:00 +14°C° 0 mm 1 mps 588 mmHg 96%
    01:00 +14°C° 0 mm 1 mps 588 mmHg 96%
    02:00 +14°C° 0 mm 1 mps 587 mmHg 95%
    03:00 +14°C° 0 mm 1 mps 587 mmHg 96%
    04:00 +14°C° 0 mm 1 mps 588 mmHg 96%
    05:00 +14°C° 0 mm 1 mps 588 mmHg 96%
    06:00 +15°C° 0 mm 1 mps 588 mmHg 90%
    07:00 +16°C° 0 mm 1 mps 589 mmHg 84%
    08:00 +19°C° 0 mm 1 mps 590 mmHg 78%
    09:00 +19°C° 0.1 mm 2 mps 591 mmHg 74%
    10:00 +20°C° 0.1 mm 3 mps 591 mmHg 69%
    11:00 +21°C° 0.1 mm 4 mps 591 mmHg 65%
    12:00 +21°C° 0.5 mm 4 mps 590 mmHg 67%
    13:00 +20°C° 0.5 mm 4 mps 590 mmHg 70%
    14:00 +20°C° 0.5 mm 4 mps 589 mmHg 72%
    15:00 +19°C° 0.4 mm 4 mps 589 mmHg 77%
    16:00 +17°C° 0.4 mm 3 mps 588 mmHg 82%
    17:00 +16°C° 0.4 mm 3 mps 588 mmHg 87%
    18:00 +15°C° 0.2 mm 2 mps 588 mmHg 90%
    19:00 +15°C° 0.2 mm 2 mps 588 mmHg 93%
    20:00 +14°C° 0.2 mm 1 mps 589 mmHg 96%
    21:00 +13°C° 0 mm 1 mps 589 mmHg 96%
    22:00 +13°C° 0 mm 1 mps 588 mmHg 97%
    23:00 +12°C° 0 mm 1 mps 588 mmHg 97%

    Day after tomorrow, 20 August, Tuesday

    Time Temperature Precipitation Wind Pressure Humidity
    00:00 +12°C° 0 mm 1 mps 588 mmHg 96%
    01:00 +11°C° 0 mm 1 mps 587 mmHg 96%
    02:00 +11°C° 0 mm 1 mps 587 mmHg 95%
    03:00 +10°C° 0 mm 1 mps 587 mmHg 95%
    04:00 +10°C° 0 mm 1 mps 587 mmHg 94%
    05:00 +10°C° 0 mm 1 mps 587 mmHg 93%
    06:00 +12°C° 0 mm 1 mps 588 mmHg 87%
    07:00 +14°C° 0 mm 1 mps 589 mmHg 80%
    08:00 +16°C° 0 mm 2 mps 591 mmHg 74%
    09:00 +17°C° 0 mm 2 mps 591 mmHg 70%
    10:00 +19°C° 0 mm 3 mps 591 mmHg 66%
    11:00 +20°C° 0 mm 4 mps 592 mmHg 62%
    12:00 +19°C° 0.3 mm 4 mps 591 mmHg 67%
    13:00 +19°C° 0.3 mm 4 mps 590 mmHg 72%
    14:00 +19°C° 0.3 mm 4 mps 589 mmHg 76%
    15:00 +18°C° 0.4 mm 3 mps 589 mmHg 81%
    16:00 +17°C° 0.4 mm 3 mps 589 mmHg 85%
    17:00 +16°C° 0.4 mm 2 mps 589 mmHg 89%
    18:00 +15°C° 0.4 mm 2 mps 589 mmHg 92%
    19:00 +15°C° 0.4 mm 2 mps 589 mmHg 94%
    20:00 +14°C° 0.4 mm 2 mps 590 mmHg 97%
    21:00 +14°C° 0.2 mm 1 mps 590 mmHg 97%
    22:00 +14°C° 0.2 mm 1 mps 590 mmHg 97%
    23:00 +13°C° 0.2 mm 1 mps 590 mmHg 97%

    21 August, Wednesday

    Time Temperature Precipitation Wind Pressure Humidity
    00:00 +13°C° 0.1 mm 1 mps 589 mmHg 96%
    01:00 +13°C° 0.1 mm 1 mps 589 mmHg 96%
    02:00 +12°C° 0.1 mm 1 mps 588 mmHg 96%
    03:00 +12°C° 0 mm 1 mps 588 mmHg 96%
    04:00 +12°C° 0 mm 1 mps 588 mmHg 95%
    05:00 +12°C° 0 mm 1 mps 588 mmHg 95%
    06:00 +13°C° 0 mm 1 mps 589 mmHg 91%
    07:00 +15°C° 0 mm 1 mps 590 mmHg 86%
    08:00 +16°C° 0 mm 1 mps 591 mmHg 81%
    09:00 +17°C° 0.1 mm 2 mps 591 mmHg 74%
    10:00 +19°C° 0.1 mm 3 mps 591 mmHg 67%
    11:00 +20°C° 0.1 mm 3 mps 592 mmHg 60%
    12:00 +20°C° 0.5 mm 3 mps 591 mmHg 66%
    13:00 +19°C° 0.5 mm 3 mps 590 mmHg 73%
    14:00 +18°C° 0.5 mm 4 mps 589 mmHg 79%
    15:00 +17°C° 0.3 mm 3 mps 589 mmHg 82%
    16:00 +17°C° 0.3 mm 2 mps 588 mmHg 85%
    17:00 +16°C° 0.3 mm 2 mps 588 mmHg 88%
    18:00 +15°C° 0.2 mm 1 mps 588 mmHg 91%
    19:00 +14°C° 0.2 mm 1 mps 589 mmHg 93%
    20:00 +13°C° 0.2 mm 1 mps 589 mmHg 96%
    21:00 +13°C° 0.1 mm 1 mps 589 mmHg 95%
    22:00 +13°C° 0.1 mm 1 mps 589 mmHg 94%
    23:00 +13°C° 0.1 mm 1 mps 589 mmHg 93%

    22 August, Thursday

    Time Temperature Precipitation Wind Pressure Humidity
    00:00 +13°C° 0 mm 1 mps 588 mmHg 93%
    01:00 +13°C° 0 mm 1 mps 588 mmHg 93%
    02:00 +12°C° 0 mm 1 mps 587 mmHg 93%
    03:00 +12°C° 0 mm 1 mps 587 mmHg 92%
    04:00 +12°C° 0 mm 1 mps 587 mmHg 91%
    05:00 +12°C° 0 mm 1 mps 588 mmHg 90%
    06:00 +14°C° 0 mm 1 mps 589 mmHg 83%
    07:00 +18°C° 0 mm 1 mps 590 mmHg 75%
    08:00 +18°C° 0 mm 0 mps 592 mmHg 67%
    09:00 +21°C° 0.3 mm 1 mps 592 mmHg 67%
    10:00 +21°C° 0.3 mm 1 mps 592 mmHg 66%
    11:00 +21°C° 0.3 mm 2 mps 592 mmHg 66%
    12:00 +20°C° 1.6 mm 2 mps 591 mmHg 72%
    13:00 +20°C° 1.6 mm 2 mps 590 mmHg 77%
    14:00 +19°C° 1.6 mm 2 mps 589 mmHg 83%
    15:00 +18°C° 1.1 mm 2 mps 589 mmHg 86%
    16:00 +18°C° 1.1 mm 2 mps 588 mmHg 90%
    17:00 +18°C° 1.1 mm 1 mps 588 mmHg 93%
    18:00 +16°C° 1.2 mm 1 mps 589 mmHg 94%
    19:00 +16°C° 1.2 mm 1 mps 589 mmHg 95%
    20:00 +15°C° 1.2 mm 0 mps 589 mmHg 96%
    21:00 +14°C° 3 mm 0 mps 589 mmHg 96%
    22:00 +15°C° 3 mm 1 mps 589 mmHg 95%
    23:00 +15°C° 3 mm 1 mps 589 mmHg 95%

    23 August, Friday

    Time Temperature Precipitation Wind Pressure Humidity
    00:00 +15°C° 1.1 mm 1 mps 589 mmHg 95%
    01:00 +15°C° 1.1 mm 1 mps 589 mmHg 94%
    02:00 +15°C° 1.1 mm 1 mps 589 mmHg 93%
    03:00 +15°C° 0.4 mm 1 mps 589 mmHg 93%
    04:00 +15°C° 0.4 mm 1 mps 589 mmHg 92%
    05:00 +15°C° 0.4 mm 1 mps 589 mmHg 92%
    06:00 +16°C° 0.1 mm 1 mps 590 mmHg 87%
    07:00 +18°C° 0.1 mm 1 mps 590 mmHg 82%
    08:00 +19°C° 0.1 mm 1 mps 591 mmHg 77%
    09:00 +20°C° 0.5 mm 1 mps 591 mmHg 74%
    10:00 +21°C° 0.5 mm 1 mps 591 mmHg 72%
    11:00 +22°C° 0.5 mm 1 mps 592 mmHg 69%
    12:00 +21°C° 1.2 mm 1 mps 591 mmHg 74%
    13:00 +21°C° 1.2 mm 1 mps 590 mmHg 80%
    14:00 +20°C° 1.2 mm 1 mps 589 mmHg 85%
    15:00 +19°C° 0.8 mm 1 mps 588 mmHg 87%
    16:00 +18°C° 0.8 mm 1 mps 588 mmHg 89%
    17:00 +18°C° 0.8 mm 1 mps 588 mmHg 92%
    18:00 +16°C° 0.2 mm 1 mps 588 mmHg 91%
    19:00 +16°C° 0.2 mm 1 mps 589 mmHg 90%
    20:00 +15°C° 0.2 mm 2 mps 589 mmHg 89%
    21:00 +15°C° 0 mm 2 mps 589 mmHg 88%
    22:00 +15°C° 0 mm 2 mps 589 mmHg 87%
    23:00 +15°C° 0 mm 2 mps 589 mmHg 86%
    Show more